sat.trackr.live / text

‹ back to catalog

STARLINK-30922

NORAD 58414 · 2023-180N

PAYLOAD ACTIVE UNKNOWN

§ Identity

Operator
Country
US
Launch date
2023-11-22
Launch site
AFETR
Launch vehicle
Mass (kg)
RCS (m²)

Purposes: comms

External: N2YO · Heavens-Above · Gunter

§ Orbital elements

Epoch: 2026-05-24T14:27:47.479968Z

Period
94.27 min
Inclination
43.0035°
Eccentricity
0.0001094
Mean motion
15.27584592 rev/d
Perigee alt
482.3 km
Apogee alt
483.8 km
Semi-major
6,861.2 km
B*
3.3057e-5
RAAN
344.0158°
Arg perigee
267.0590°
Mean anomaly
93.0137°
Rev number
13,923

§ Raw data

STARLINK-309221 58414U 23180N   26144.60263287  .00000648  00000+0  33057-4 0  99962 58414  43.0035 344.0158 0001094 267.0590  93.0137 15.27584592139236

JSON: /api/v1/satellites/58414 · /tle

For live sub-satellite position, see the globe view (requires WebGL).

§ Visibility from observer

Set your observer location to see the next 7 days of passes ≥ 10°. The values pass through the URL so the page stays shareable.

No JS? Fill the form by hand. The geolocation button needs JavaScript.